Погода в Бугульме

Погода в Бугульме : погода сейчас, прогноз погоды и архив. Всё, что Вы хотите узнать о погоде в Бугульме!

Хотите узнать прогноз погоды в Бугульме? Тогда Вам сюда: Погода в Бугульме

Поиск расширенной информации на нашем сайте:

Другие новости

Новости СМИ2

Главная страница сайта

Новости сайта

03.07.2017

Напоминаем, что на нашем специализированном сайте Метеоцентр.Азия вы можете получить высокодетализированные автоматические прогнозы погоды по пунктам России, СНГ и мира в авиационном формате (включающие направление и скорость ветра, видимость, явления погоды, количество и форму облачности, нижнюю и верхнюю границу облачности).


Погода в Бугульме - сегодня

Время (UTC), дата Ветер
(°,м/с) 
Видим.   Явления Облачность Т
(°С)
Тd
(°С)
f(%) Тe
(°С)
Pmin
(гПа)
dP
(гПа)
Po
(мм)
O2
(г/м3)
Тmin Tmax R s Состояние
почвы
09 17.08.18 010 (С) 20000 м    10/6 1080 м верхняя 
[Cu hum|Ci fib]
+18.3 +7.7 50 +18  1017.9  0.3  737  277           
18 17.08.18 330 (СЗ) 10 км    6/3 1500 м верхняя 
[Sc|Ci fib]
+12.4 +6.2 66 +12  1019.3  0.2  737  283           
21 17.08.18 360 (С) 10 км    4/0 средняя 
[Ac trans]
+9.4 +5.8 78 +9  1019.6  0.1  737  286           
00 18.08.18 340 (С) 10 км    4/0 средняя 
[Ac trans]
+9.2 +6.9 86 +8  1020.3  0.7  738  286           
03 18.08.18 350 (С) 20000 м    8/4 300 м средняя, верхняя 
[Sc|Ac trans|Ci fib]
+9.5 +8.2 92 +9  1021.2  0.9  738  286  +8.2        влажная 
06 18.08.18 010 (С) 20000 м    6/6 360 м 
[Cu hum]
+13.1 +8.3 73 +12  1021.2  0.4  739  283           
09 18.08.18 010 (С) 20000 м    6/6 1200 м 
[Cu hum]
+15.5 +6.2 54 +15  1020.3  -0.6  738  280           
18 18.08.18 010 (С) 10 км    3/0 средняя 
[Ac trans]
+9.4 +5.3 76 +9  1021.5  0.5  739  287           
21 18.08.18 350 (С) 10 км    6/3 1000 м средняя 
[Sc|Ac trans]
+9.9 +6.1 77 +10  1021.7  0.2  739  286           
00 19.08.18 350 (С) 10 км    4/3 1500 м верхняя 
[Sc|Ci fib]
+6.6 +4.1 84 +6  1022.5  0.3  739  290           
03 19.08.18 360 (С) 20000 м    3/3 1500 м 
[Sc]
+8.8 +6.2 84 +8  1022.5  0.4  739  288  +5.5        сухая 
06 19.08.18 050 (СВ) 20000 м    6/6 1000 м 
[Cu hum]
+14 +6.1 59 +14  1021.9  739  282           
09 19.08.18 050 (СВ) 20000 м    6/6 1000 м 
[Cu hum]
+17.1 +5.1 45 +18  1020.3  -1.1  739  279           
12 19.08.18 340 (С) 3{10}  20000 м    6/6 1000 м 
[Cu hum]
+18.1 +4.9 42 +19  1019.5  -0.7  738  278           
15 19.08.18 020 (С) 20000 м    3/3 1000 м 
[Cu hum]
+15.2 +5.8 53 +15  1019.5  -0.3  738  281    +18.3       
18 19.08.18 010 (С) 10 км    ясно 
+9.9 +5.1 72 +11  1020  -0.2  738  286           
21 19.08.18 310 (СЗ) 10 км    ясно 
+6.5 +4.6 88 +7  1020.3  -0.2  737  289           
00 20.08.18 280 (З) 10 км    3/0 средняя 
[Ac trans]
+7.3 +4.9 85 +7  1020  -0.2  737  289           
03 20.08.18 тихо ()   20000 м    4/0 верхняя 
[Ci fib]
+11.8 +7.9 77 +12  1019.3  0.1  737  283  +4        сухая 
06 20.08.18 300 (СЗ) 20000 м    4/4 1000 м 
[Cu hum]
+16.1 +6.1 51 +17  1018.2  -0.5  737  279           
09 20.08.18 290 (З) 20000 м    8/6 1200 м верхняя 
[Cu hum|Ci fib]
+18.8 +5.6 42 +20  1016.9  -0.9  736  277           
12 20.08.18 250 (З) 20000 м    8/4 1000 м средняя, верхняя 
[Cu Sc|Ac trans|Ci fib]
+20.3 +5.9 39 +20  1015.6  -1.1  735  275           
15 20.08.18 210 (ЮЗ) 20000 м    8/6 1000 м средняя, верхняя 
[Sc|Ac trans|Ci fib]
+17.4 +9.1 58 +18  1014.8  -1  735  277    +20.6       
18 20.08.18 210 (ЮЗ) 10 км    8/6 1200 м кучево-дожд., средняя 
[Cb calv|Ac trans]
+16.6 +9.6 63 +18  1014.5  -0.4  734  277           
21 20.08.18 220 (ЮЗ) 10 км    4/4 1500 м 
[Sc diur, vesp]
+16.6 +9.3 62 +18  1013.5  -0.9  734  277           
Время (UTC), дата Ветер
(°,м/с) 
Видим.   Явления Облачность Т
(°С)
Тd
(°С)
f(%) Тe
(°С)
Pmin
(гПа)
dP
(гПа)
Po
(мм)
O2
(г/м3)
Тmin Tmax R s Состояние
почвы

Для получения пояснительной информации подведите курсор к названию столбца.

ПОГОДА в Бугульме - архив

Всё, что Вы хотите узнать о погоде в Бугульме - удобно и подробно!

Выберите нужную дату (начиная с 1 января 2015* года) и нажмите кнопку "Найти".
Будут отображены архивные сводки погоды по пункту Бугульма, начиная с указанной даты.


Отображать данные в формате CSV (для использования в таблицах Excel)


Внимание! Наш архив погоды предназначен исключительно для личного некоммерческого использования в познавательных целях. Если Вам необходимы официальные справки о состоянии погоды (для производственных, юридических, коммерческих и т.п. целей), обращайтесь в органы Росгидромета.

*Примечание: данная дата относится к архиву по метеостанциям СССР (Россия, СНГ, Балтия).
Архив по метеостанциям Зарубежной Европы и Азии (кроме Китая) хранится 10 дней, по другим регионам земного шара (Китай, Африка, Америка, Австралия, Океания) - 1 день.

Бугульма - район местоположения метеостанции


Название, широта, долгота, высота метеостанции:
Бугульма 54.6°ш. 52.8°д. 304 м над ур. моря [Российская Федерация]

Дополнительная информация

В oтличие oт бoльшинства пoгoдных сайтoв мы публикуем пoдрoбную метеoинфoрмацию в детальнoм прoфессиoнальнoм фoрмате.

Характеристики температуры и влажнoсти вoздуха измеряются на высoте 2 м в тени вдали oт зданий и деревьев.
Скoрoсть ветра измеряется на высoте 10 м (на урoвне рoста челoвека скoрoсть ветра ниже в 1.5-2 раза). Если метеoстанция нахoдится в гoрoде или в лесу, тo скoрoсть ветра занижена на 2-4 м/с пo сравнению с oткрытым местoм. Скoрoсть ветра над акватoриями крупных рек и oзёр, а также на вершинах хoлмoв на 2-5 м/с выше, чем в oбычных услoвиях.
Атмoсфернoе давление в разных тoчках местнoсти мoжет значительнo oтличаться oт давления на метеoстанции, в зависимoсти oт услoвий рельефа (при пoдъёме на 10 м давление пoнижается примернo на 1 мм рт.ст.).